Solus Project


[ICO]NameLast modifiedSize
[PARENTDIR]Parent Directory  -
[DIR]k3b/2018-09-09 21:39 -
[DIR]kaa-base/2017-09-21 09:54 -
[DIR]kaa-metadata/2018-02-09 21:58 -
[DIR]kaccounts-integration/2018-09-09 21:39 -
[DIR]kaccounts-providers/2018-09-09 21:39 -
[DIR]kactivities-stats/2018-09-09 21:39 -
[DIR]kactivities/2018-09-09 21:39 -
[DIR]kactivitymanagerd/2018-09-09 21:39 -
[DIR]kaddressbook/2018-09-09 21:39 -
[DIR]kaffeine/2018-09-09 21:39 -
[DIR]kakoune/2018-08-07 01:49 -
[DIR]kalarmcal/2018-09-09 21:39 -
[DIR]kamera/2018-09-09 21:39 -
[DIR]kanagram/2018-09-09 21:39 -
[DIR]karchive/2018-09-09 21:39 -
[DIR]kate/2018-09-09 21:39 -
[DIR]kauth/2018-09-09 21:39 -
[DIR]kbd/2017-09-21 09:54 -
[DIR]kbookmarks/2018-09-09 21:39 -
[DIR]kbproto/2017-09-21 09:54 -
[DIR]kcalc/2018-09-09 21:39 -
[DIR]kcalcore/2018-09-09 21:39 -
[DIR]kcalutils/2018-09-09 21:39 -
[DIR]kcharselect/2018-09-09 21:39 -
[DIR]kcmutils/2018-09-09 21:39 -
[DIR]kcodecs/2018-09-09 21:39 -
[DIR]kcompletion/2018-09-09 21:39 -
[DIR]kconfig/2018-09-09 21:39 -
[DIR]kconfigwidgets/2018-09-09 21:39 -
[DIR]kcontacts/2018-09-09 21:39 -
[DIR]kcoreaddons/2018-09-09 21:39 -
[DIR]kcrash/2018-09-09 21:39 -
[DIR]kdav/2018-09-09 21:39 -
[DIR]kdbusaddons/2018-09-09 21:39 -
[DIR]kde-cli-tools/2018-09-09 21:39 -
[DIR]kde-gtk-config/2018-09-09 21:39 -
[DIR]kdeclarative/2018-09-09 21:39 -
[DIR]kdeconnect/2018-09-09 21:39 -
[DIR]kdecoration/2018-09-09 21:39 -
[DIR]kded/2018-09-09 21:39 -
[DIR]kdegraphics-mobipocket/2018-09-09 21:39 -
[DIR]kdegraphics-thumbnailers/2018-09-09 21:39 -
[DIR]kdelibs4support/2018-09-09 21:39 -
[DIR]kdenetwork-filesharing/2018-09-09 21:39 -
[DIR]kdenlive/2018-09-09 21:39 -
[DIR]kdepim-addons/2018-08-18 09:30 -
[DIR]kdepim-apps-libs/2018-09-09 21:39 -
[DIR]kdepim-runtime/2018-09-09 21:39 -
[DIR]kdeplasma-addons/2018-09-09 21:39 -
[DIR]kdesignerplugin/2018-09-09 21:39 -
[DIR]kdesu/2018-09-09 21:39 -
[DIR]kdev-php/2018-08-22 03:41 -
[DIR]kdev-python/2018-08-22 03:34 -
[DIR]kdevelop-pg-qt/2017-11-15 01:48 -
[DIR]kdevelop/2018-09-09 21:39 -
[DIR]kdevplatform/2018-03-31 12:26 -
[DIR]kdewebkit/2018-09-09 21:39 -
[DIR]kdiagram/2017-09-21 09:10 -
[DIR]kdialog/2018-09-09 21:39 -
[DIR]kdnssd/2018-09-09 21:39 -
[DIR]kdoctools/2018-09-09 21:39 -
[DIR]kdsoap/2018-08-19 06:04 -
[DIR]keepass/2018-09-09 21:39 -
[DIR]keepassx/2018-09-09 21:39 -
[DIR]kemoticons/2018-09-09 21:39 -
[DIR]kerberos/2018-09-09 21:39 -
[DIR]kernel-glue/2017-12-01 11:43 -
[DIR]kernel/2017-09-21 09:56 -
[DIR]keybase/2018-08-25 20:42 -
[DIR]keybinder/2018-09-09 21:39 -
[DIR]keyutils/2018-08-30 17:21 -
[DIR]kfilemetadata/2018-09-09 21:39 -
[DIR]kgamma5/2018-09-09 21:39 -
[DIR]kgeography/2018-09-09 21:39 -
[DIR]kget/2018-09-09 21:39 -
[DIR]kglobalaccel/2018-09-09 21:39 -
[DIR]kguiaddons/2018-09-09 21:39 -
[DIR]kholidays/2018-09-09 21:39 -
[DIR]khotkeys/2018-09-09 21:39 -
[DIR]khtml/2018-09-09 21:39 -
[DIR]ki18n/2018-09-09 21:39 -
[DIR]kicad-footprints/2018-07-26 02:46 -
[DIR]kicad-i18n/2018-07-23 14:57 -
[DIR]kicad-library/2017-12-24 15:13 -
[DIR]kicad-packages3d/2018-07-23 15:31 -
[DIR]kicad-symbols/2018-07-26 02:46 -
[DIR]kicad-templates/2018-07-23 15:32 -
[DIR]kicad/2018-09-09 21:39 -
[DIR]kiconthemes/2018-09-09 21:39 -
[DIR]kid3/2018-01-23 04:19 -
[DIR]kidentitymanagement/2018-09-09 21:39 -
[DIR]kidletime/2018-09-09 21:39 -
[DIR]kildclient/2018-01-20 08:32 -
[DIR]kimap/2018-09-09 21:39 -
[DIR]kinfocenter/2018-09-09 21:39 -
[DIR]kinit/2018-09-09 21:39 -
[DIR]kio-extras/2018-09-09 21:39 -
[DIR]kio-gdrive/2018-07-02 01:00 -
[DIR]kio-stash/2018-06-13 07:25 -
[DIR]kio/2018-09-09 21:39 -
[DIR]kirigami2/2018-09-09 21:39 -
[DIR]kitematic/2018-08-05 17:06 -
[DIR]kitemmodels/2018-09-09 21:39 -
[DIR]kitemviews/2018-09-09 21:39 -
[DIR]kitinerary/2018-08-18 07:30 -
[DIR]kitty/2018-09-09 21:39 -
[DIR]kjobwidgets/2018-09-09 21:39 -
[DIR]kjs/2018-09-09 21:39 -
[DIR]kjsembed/2018-09-09 21:39 -
[DIR]klavaro/2018-04-25 12:02 -
[DIR]klayout/2018-05-05 19:39 -
[DIR]kldap/2018-09-09 21:39 -
[DIR]kleopatra/2018-09-09 21:39 -
[DIR]klystrack/2018-01-21 09:21 -
[DIR]kmag/2018-09-09 21:39 -
[DIR]kmail-account-wizard/2018-09-09 21:39 -
[DIR]kmail/2018-09-09 21:39 -
[DIR]kmailtransport/2018-09-09 21:39 -
[DIR]kmbox/2018-09-09 21:39 -
[DIR]kmenuedit/2018-09-09 21:39 -
[DIR]kmime/2018-09-09 21:39 -
[DIR]kmix/2018-09-09 21:39 -
[DIR]kmod/2018-09-09 21:39 -
[DIR]kmymoney/2018-09-09 21:39 -
[DIR]knewstuff/2018-09-09 21:39 -
[DIR]knotes/2018-09-09 21:39 -
[DIR]knotifications/2018-09-09 21:39 -
[DIR]knotifyconfig/2018-09-09 21:39 -
[DIR]kodi-addon-inputstream-adaptive/2018-09-09 21:29 -
[DIR]kodi-platform/2017-09-21 09:10 -
[DIR]kodi-pvr-iptvsimple/2018-08-07 01:52 -
[DIR]kodi/2018-09-09 21:39 -
[DIR]koji/2017-09-21 09:55 -
[DIR]kolourpaint/2018-09-09 21:39 -
[DIR]konsole/2018-09-09 21:39 -
[DIR]kontact/2018-09-09 21:39 -
[DIR]kontactinterface/2018-09-09 21:39 -
[DIR]kontalk/2017-09-21 09:10 -
[DIR]konversation/2018-09-09 21:39 -
[DIR]korganizer/2018-09-09 21:39 -
[DIR]kotlin/2018-03-25 23:08 -
[DIR]kpackage/2018-09-09 21:39 -
[DIR]kparts/2018-09-09 21:39 -
[DIR]kpat/2018-09-09 21:39 -
[DIR]kpeople/2018-09-09 21:39 -
[DIR]kpimtextedit/2018-09-09 21:39 -
[DIR]kpkpass/2018-08-18 07:26 -
[DIR]kplotting/2018-09-09 21:39 -
[DIR]kpmcore/2018-09-09 21:39 -
[DIR]kpty/2018-09-09 21:39 -
[DIR]krdc/2018-08-11 17:32 -
[DIR]krename/2018-03-23 09:33 -
[DIR]krita/2018-09-09 21:39 -
[DIR]kross/2018-09-09 21:39 -
[DIR]krunner/2018-09-09 21:39 -
[DIR]krusader/2018-09-09 21:39 -
[DIR]kscreen/2018-09-09 21:39 -
[DIR]kscreenlocker/2018-09-09 21:39 -
[DIR]kservice/2018-09-09 21:39 -
[DIR]ksmtp/2018-09-09 21:39 -
[DIR]ksshaskpass/2018-09-09 21:39 -
[DIR]kstars/2018-09-09 21:39 -
[DIR]ksysguard/2018-09-09 21:39 -
[DIR]kteatime/2018-09-09 21:39 -
[DIR]ktexteditor/2018-09-09 21:39 -
[DIR]ktextwidgets/2018-09-09 21:39 -
[DIR]ktnef/2018-09-09 21:39 -
[DIR]kubectl/2018-08-11 12:02 -
[DIR]kunitconversion/2018-09-09 21:39 -
[DIR]kvantum/2018-06-14 03:36 -
[DIR]kwallet-pam/2018-09-09 21:39 -
[DIR]kwallet/2018-09-09 21:39 -
[DIR]kwalletmanager/2018-09-09 21:39 -
[DIR]kwayland-integration/2018-09-09 21:39 -
[DIR]kwayland/2018-09-09 21:39 -
[DIR]kwidgetsaddons/2018-09-09 21:39 -
[DIR]kwin/2018-09-09 21:39 -
[DIR]kwindowsystem/2018-09-09 21:39 -
[DIR]kwrited/2018-09-09 21:39 -
[DIR]kxmlgui/2018-09-09 21:39 -
[DIR]kxmlrpcclient/2018-09-09 21:39 -
Solus Software Repository (ring0) | Request a package addition
Copyright © 2015-2017 Solus Project.
The Solus logo is Copyright © 2016-2017 Solus Project.